Tracking 25656 objects as of 21-May-2022
HD Live streaming from Space Station
objects crossing your sky now

ONEWEB-0246

Track ONEWEB-0246 now!
10-day predictions
ONEWEB-0246 is classified as:


NORAD ID: 48786
Int'l Code: 2021-045V
Perigee: 1,207.6 km
Apogee: 1,210.3 km
Inclination: 87.9 °
Period: 109.5 minutes
Semi major axis: 7579 km
RCS: Unknown
Launch date: May 28, 2021
Source: United Kingdom (UK)
Launch site: VOSTOCHNY COSMODROME (VOSTO)
aabbcc
Your satellite tracking list
Your tracking list is empty




NASA's NSSDC Master Catalog

Two Line Element Set (TLE):
1 48786U 21045V   22141.58335648  .00034174  00000-0  90417-1 0  9998
2 48786  87.9110 195.1110 0001786  82.9585 326.4501 13.15538923  1303
Source of the keplerian elements: AFSPC